sat.trackr.live / text

‹ back to catalog

STARLINK-3057

NORAD 49139 · 2021-082K

PAYLOAD ACTIVE UNKNOWN

§ Identity

Operator
Country
US
Launch date
2021-09-14
Launch site
AFWTR
Launch vehicle
Mass (kg)
RCS (m²)

Purposes: comms

External: N2YO · Heavens-Above · Gunter

§ Orbital elements

Epoch: 2026-09-10T06:00:02.000160Z

Period
92.87 min
Inclination
70.0001°
Eccentricity
0.0003483
Mean motion
15.50633381 rev/d
Perigee alt
412.5 km
Apogee alt
417.2 km
Semi-major
6,793.0 km
B*
1.7664e-3
RAAN
137.8399°
Arg perigee
273.7080°
Mean anomaly
48.6230°
Rev number
588

§ Raw data

STARLINK-30571 49139U 21082K   26253.25002315  .00102775  00000+0  17664-2 0  99922 49139  70.0001 137.8399 0003483 273.7080  48.6230 15.50633381  5880

JSON: /api/v1/satellites/49139 · /tle

For live sub-satellite position, see the globe view (requires WebGL).

§ Visibility from observer

Set your observer location to see the next 7 days of passes ≥ 10°. The values pass through the URL so the page stays shareable.

No JS? Fill the form by hand. The geolocation button needs JavaScript.